| time (UTC) | temp F | wind direction | speed MPH | gust MPH | rain 1hr in | rain 24hr in | rain mn in | humidity % | barometer mb |
| 20260504191953 | 74 | 246 | 3.0 | 8.0 | 0.00 | 0.00 | 0.00 | 36 | 998.3 |
| 20260504191227 | 74 | 217 | 3.0 | 10.0 | 0.00 | 0.00 | 0.00 | 39 | 998.3 |
| 20260504190953 | 74 | 211 | 3.0 | 10.0 | 0.00 | 0.00 | 0.00 | 39 | 998.4 |
| 20260504190226 | 73 | 189 | 4.0 | 11.0 | 0.00 | 0.00 | 0.00 | 39 | 998.5 |
| 20260504185727 | 73 | 241 | 5.0 | 11.0 | 0.00 | 0.00 | 0.00 | 37 | 998.6 |
| 20260504185440 | 73 | 200 | 5.0 | 11.0 | 0.00 | 0.00 | 0.00 | 37 | 998.7 |
| 20260504184715 | 73 | 177 | 4.0 | 11.0 | 0.00 | 0.00 | 0.00 | 38 | 998.7 |
| 20260504184432 | 73 | 229 | 4.0 | 15.0 | 0.00 | 0.00 | 0.00 | 36 | 998.8 |
| 20260504183704 | 73 | 227 | 4.0 | 15.0 | 0.00 | 0.00 | 0.00 | 36 | 998.9 |
| 20260504183157 | 73 | 260 | 5.0 | 14.0 | 0.00 | 0.00 | 0.00 | 36 | 998.9 |
| 20260504183134 | 73 | 215 | 5.0 | 14.0 | 0.00 | 0.00 | 0.00 | 35 | 999.0 |
| 20260504182145 | 73 | 261 | 4.0 | 13.0 | 0.00 | 0.00 | 0.00 | 36 | 999.0 |
| 20260504181640 | 73 | 227 | 5.0 | 10.0 | 0.00 | 0.00 | 0.00 | 36 | 999.1 |
| 20260504181132 | 72 | 195 | 5.0 | 13.0 | 0.00 | 0.00 | 0.00 | 35 | 999.1 |
| 20260504180634 | 72 | 240 | 5.0 | 13.0 | 0.00 | 0.00 | 0.00 | 35 | 999.3 |
| 20260504180132 | 72 | 191 | 4.0 | 10.0 | 0.00 | 0.00 | 0.00 | 36 | 999.2 |
| 20260504175632 | 72 | 202 | 4.0 | 10.0 | 0.00 | 0.00 | 0.00 | 36 | 999.3 |
| 20260504175131 | 72 | 242 | 5.0 | 12.0 | 0.00 | 0.00 | 0.00 | 37 | 999.5 |
| 20260504174630 | 72 | 299 | 5.0 | 12.0 | 0.00 | 0.00 | 0.00 | 36 | 999.6 |
| 20260504174130 | 72 | 188 | 5.0 | 10.0 | 0.00 | 0.00 | 0.00 | 37 | 999.6 |
| 20260504173628 | 72 | 248 | 4.0 | 14.0 | 0.00 | 0.00 | 0.00 | 36 | 999.6 |
| 20260504173126 | 72 | 261 | 3.0 | 14.0 | 0.00 | 0.00 | 0.00 | 37 | 999.7 |
| 20260504172627 | 72 | 242 | 2.0 | 9.0 | 0.00 | 0.00 | 0.00 | 36 | 999.7 |
| 20260504172127 | 72 | 226 | 3.0 | 15.0 | 0.00 | 0.00 | 0.00 | 39 | 999.8 |
| 20260504171626 | 71 | 207 | 4.0 | 15.0 | 0.00 | 0.00 | 0.00 | 40 | 999.9 |
| 20260504171122 | 71 | 236 | 4.0 | 14.0 | 0.00 | 0.00 | 0.00 | 39 | 1000.0 |
| 20260504170623 | 71 | 244 | 4.0 | 12.0 | 0.00 | 0.00 | 0.00 | 38 | 1000.0 |
| 20260504170343 | 70 | 222 | 5.0 | 14.0 | 0.00 | 0.00 | 0.00 | 40 | 1000.1 |
| 20260504151149 | 67 | 251 | 5.0 | 13.0 | 0.00 | 0.00 | 0.00 | 42 | 1001.4 |
| 20260504150423 | 67 | 314 | 5.0 | 12.0 | 0.00 | 0.00 | 0.00 | 42 | 1001.5 |
| 20260504141323 | 64 | 200 | 3.0 | 9.0 | 0.00 | 0.00 | 0.00 | 54 | 1001.6 |
| 20260504140817 | 64 | 190 | 2.0 | 5.0 | 0.00 | 0.00 | 0.00 | 56 | 1001.6 |
| 20260504140313 | 64 | 111 | 2.0 | 7.0 | 0.00 | 0.00 | 0.00 | 55 | 1001.6 |
| 20260504130706 | 59 | 210 | 2.0 | 6.0 | 0.00 | 0.00 | 0.00 | 65 | 1002.1 |
| 20260504130158 | 59 | 239 | 2.0 | 5.0 | 0.00 | 0.00 | 0.00 | 66 | 1002.0 |
| 20260504120139 | 51 | 269 | 2.0 | 7.0 | 0.00 | 0.00 | 0.00 | 81 | 1002.2 |
| 20260504110632 | 38 | 245 | 0.0 | 0.0 | 0.00 | 0.00 | 0.00 | 90 | 1002.6 |
| 20260504110133 | 38 | 245 | 0.0 | 0.0 | 0.00 | 0.00 | 0.00 | 90 | 1002.6 |
| 20260504100333 | 36 | 245 | 0.0 | 0.0 | 0.00 | 0.00 | 0.00 | 87 | 1002.5 |
| 20260504081912 | 37 | 245 | 0.0 | 0.0 | 0.00 | 0.00 | 0.00 | 83 | 1002.4 |
| 20260504081848 | 37 | 245 | 0.0 | 0.0 | 0.00 | 0.00 | 0.00 | 82 | 1002.5 |
| 20260504080901 | 37 | 245 | 0.0 | 0.0 | 0.00 | 0.00 | 0.00 | 82 | 1002.5 |
| 20260504080354 | 37 | 245 | 0.0 | 0.0 | 0.00 | 0.00 | 0.00 | 82 | 1002.5 |
| 20260504070242 | 38 | 245 | 0.0 | 0.0 | 0.00 | 0.00 | 0.00 | 81 | 1002.4 |
| 20260504060130 | 39 | 245 | 0.0 | 0.0 | 0.00 | 0.00 | 0.00 | 78 | 1002.4 |
| 20260504050524 | 40 | 245 | 0.0 | 0.0 | 0.00 | 0.00 | 0.00 | 76 | 1002.4 |
| 20260504050018 | 40 | 245 | 0.0 | 0.0 | 0.00 | 0.00 | 0.00 | 75 | 1002.4 |
| 20260504045512 | 40 | 245 | 0.0 | 0.0 | 0.00 | 0.00 | 0.00 | 75 | 1002.4 |
| 20260504045501 | 41 | 245 | 0.0 | 0.0 | 0.00 | 0.00 | 0.00 | 74 | 1002.3 |
| 20260504044509 | 41 | 245 | 0.0 | 0.0 | 0.00 | 0.00 | 0.00 | 73 | 1002.3 |
| 20260504044008 | 41 | 245 | 0.0 | 0.0 | 0.00 | 0.00 | 0.00 | 73 | 1002.3 |
| 20260504043505 | 41 | 245 | 0.0 | 0.0 | 0.00 | 0.00 | 0.00 | 73 | 1002.3 |
| 20260504043004 | 41 | 245 | 0.0 | 0.0 | 0.00 | 0.00 | 0.00 | 72 | 1002.2 |
| 20260504042500 | 41 | 245 | 0.0 | 0.0 | 0.00 | 0.00 | 0.00 | 72 | 1002.2 |
| 20260504041959 | 41 | 245 | 0.0 | 0.0 | 0.00 | 0.00 | 0.00 | 72 | 1002.1 |
| 20260504041457 | 42 | 245 | 0.0 | 0.0 | 0.00 | 0.00 | 0.00 | 72 | 1002.0 |
| 20260504040957 | 42 | 245 | 0.0 | 0.0 | 0.00 | 0.00 | 0.00 | 72 | 1002.0 |
| 20260504040713 | 42 | 245 | 0.0 | 0.0 | 0.00 | 0.00 | 0.00 | 71 | 1002.0 |
| 20260504035953 | 42 | 245 | 0.0 | 0.0 | 0.00 | 0.00 | 0.00 | 71 | 1002.0 |
| 20260504035449 | 42 | 245 | 0.0 | 0.0 | 0.00 | 0.00 | 0.00 | 70 | 1002.0 |
| 20260504034948 | 42 | 245 | 0.0 | 0.0 | 0.00 | 0.00 | 0.00 | 70 | 1001.9 |
| 20260504034713 | 42 | 245 | 0.0 | 0.0 | 0.00 | 0.00 | 0.00 | 70 | 1001.9 |
| 20260504033944 | 43 | 245 | 0.0 | 0.0 | 0.00 | 0.00 | 0.00 | 70 | 1001.8 |
| 20260504033443 | 43 | 245 | 0.0 | 0.0 | 0.00 | 0.00 | 0.00 | 69 | 1001.8 |
| 20260504032945 | 43 | 245 | 0.0 | 0.0 | 0.00 | 0.00 | 0.00 | 69 | 1001.8 |
| 20260504032702 | 43 | 245 | 0.0 | 0.0 | 0.00 | 0.00 | 0.00 | 69 | 1001.7 |
| 20260504032208 | 43 | 245 | 0.0 | 0.0 | 0.00 | 0.00 | 0.00 | 68 | 1001.8 |
| 20260504031441 | 43 | 245 | 0.0 | 0.0 | 0.00 | 0.00 | 0.00 | 67 | 1001.8 |
| 20260504030941 | 44 | 245 | 0.0 | 0.0 | 0.00 | 0.00 | 0.00 | 67 | 1001.7 |
| 20260504030437 | 44 | 245 | 0.0 | 0.0 | 0.00 | 0.00 | 0.00 | 67 | 1001.6 |
| 20260504025930 | 44 | 245 | 0.0 | 0.0 | 0.00 | 0.00 | 0.00 | 66 | 1001.7 |
| 20260504025424 | 44 | 245 | 0.0 | 0.0 | 0.00 | 0.00 | 0.00 | 66 | 1001.6 |
| 20260504024918 | 44 | 245 | 0.0 | 0.0 | 0.00 | 0.00 | 0.00 | 65 | 1001.7 |
| 20260504024640 | 45 | 245 | 0.0 | 0.0 | 0.00 | 0.00 | 0.00 | 64 | 1001.7 |
| 20260504023905 | 45 | 245 | 0.0 | 0.0 | 0.00 | 0.00 | 0.00 | 64 | 1001.8 |
| 20260504023400 | 45 | 245 | 0.0 | 0.0 | 0.00 | 0.00 | 0.00 | 63 | 1001.7 |
| 20260504022853 | 45 | 245 | 0.0 | 0.0 | 0.00 | 0.00 | 0.00 | 63 | 1001.7 |
| 20260504022348 | 46 | 245 | 0.0 | 0.0 | 0.00 | 0.00 | 0.00 | 62 | 1001.7 |
| 20260504022105 | 46 | 245 | 0.0 | 0.0 | 0.00 | 0.00 | 0.00 | 61 | 1001.6 |
| 20260504021336 | 46 | 245 | 0.0 | 0.0 | 0.00 | 0.00 | 0.00 | 60 | 1001.7 |
| 20260504020832 | 47 | 245 | 0.0 | 0.0 | 0.00 | 0.00 | 0.00 | 59 | 1001.7 |
| 20260504020323 | 47 | 245 | 0.0 | 0.0 | 0.00 | 0.00 | 0.00 | 59 | 1001.6 |
| 20260504015819 | 47 | 245 | 0.0 | 0.0 | 0.00 | 0.00 | 0.00 | 58 | 1001.6 |
| 20260504015312 | 48 | 245 | 0.0 | 0.0 | 0.00 | 0.00 | 0.00 | 58 | 1001.6 |
| 20260504015245 | 48 | 245 | 0.0 | 0.0 | 0.00 | 0.00 | 0.00 | 58 | 1001.5 |
| 20260504014259 | 48 | 245 | 0.0 | 0.0 | 0.00 | 0.00 | 0.00 | 57 | 1001.5 |
| 20260504013754 | 49 | 245 | 0.0 | 0.0 | 0.00 | 0.00 | 0.00 | 56 | 1001.5 |
| 20260504013248 | 49 | 245 | 0.0 | 0.0 | 0.00 | 0.00 | 0.00 | 55 | 1001.5 |
| 20260504012741 | 49 | 245 | 0.0 | 0.0 | 0.00 | 0.00 | 0.00 | 54 | 1001.4 |
| 20260504012236 | 50 | 245 | 0.0 | 0.0 | 0.00 | 0.00 | 0.00 | 54 | 1001.4 |
| 20260504011729 | 50 | 245 | 0.0 | 0.0 | 0.00 | 0.00 | 0.00 | 52 | 1001.4 |
| 20260504011224 | 51 | 245 | 0.0 | 0.0 | 0.00 | 0.00 | 0.00 | 50 | 1001.2 |
| 20260504010719 | 51 | 245 | 0.0 | 0.0 | 0.00 | 0.00 | 0.00 | 49 | 1001.2 |
| 20260504010212 | 52 | 245 | 0.0 | 0.0 | 0.00 | 0.00 | 0.00 | 48 | 1001.1 |
| 20260504005706 | 52 | 245 | 0.0 | 0.0 | 0.00 | 0.00 | 0.00 | 47 | 1001.1 |
| 20260504005200 | 53 | 245 | 0.0 | 0.0 | 0.00 | 0.00 | 0.00 | 45 | 1001.0 |
| 20260504004653 | 54 | 245 | 0.0 | 0.0 | 0.00 | 0.00 | 0.00 | 45 | 1001.0 |
| 20260504004147 | 54 | 245 | 0.0 | 0.0 | 0.00 | 0.00 | 0.00 | 44 | 1000.9 |
| 20260504003642 | 55 | 245 | 0.0 | 0.0 | 0.00 | 0.00 | 0.00 | 42 | 1000.9 |
| 20260504003136 | 55 | 245 | 0.0 | 0.0 | 0.00 | 0.00 | 0.00 | 42 | 1000.8 |
| 20260504002631 | 56 | 245 | 0.0 | 1.0 | 0.00 | 0.00 | 0.00 | 41 | 1000.6 |
| 20260504002349 | 56 | 245 | 0.0 | 4.0 | 0.00 | 0.00 | 0.00 | 41 | 1000.6 |
| 20260504001618 | 56 | 245 | 1.0 | 4.0 | 0.00 | 0.00 | 0.00 | 40 | 1000.6 |
| 20260504001112 | 56 | 247 | 1.0 | 3.0 | 0.00 | 0.00 | 0.00 | 40 | 1000.5 |
| 20260504000825 | 56 | 244 | 1.0 | 3.0 | 0.00 | 0.00 | 0.00 | 39 | 1000.5 |
| 20260504000106 | 57 | 246 | 1.0 | 5.0 | 0.00 | 0.00 | 0.00 | 39 | 1000.4 |
| 20260503235605 | 57 | 254 | 1.0 | 5.0 | 0.00 | 0.00 | 0.00 | 39 | 1000.4 |
| 20260503235601 | 57 | 233 | 2.0 | 7.0 | 0.00 | 0.00 | 0.00 | 39 | 1000.3 |
| 20260503234559 | 57 | 265 | 2.0 | 7.0 | 0.00 | 0.00 | 0.00 | 38 | 1000.3 |
| 20260503234059 | 57 | 252 | 2.0 | 7.0 | 0.00 | 0.00 | 0.00 | 38 | 1000.2 |
| 20260503233556 | 58 | 245 | 3.0 | 7.0 | 0.00 | 0.00 | 0.00 | 38 | 1000.3 |
| 20260503233058 | 58 | 252 | 3.0 | 10.0 | 0.00 | 0.00 | 0.00 | 37 | 1000.2 |
| 20260503232556 | 58 | 250 | 3.0 | 10.0 | 0.00 | 0.00 | 0.00 | 37 | 1000.2 |
| 20260503232056 | 58 | 250 | 2.0 | 9.0 | 0.00 | 0.00 | 0.00 | 38 | 1000.1 |
| 20260503231554 | 58 | 238 | 2.0 | 9.0 | 0.00 | 0.00 | 0.00 | 36 | 1000.1 |
| 20260503231320 | 58 | 249 | 2.0 | 9.0 | 0.00 | 0.00 | 0.00 | 37 | 1000.1 |
| 20260503230554 | 58 | 205 | 3.0 | 9.0 | 0.00 | 0.00 | 0.00 | 36 | 1000.1 |
| 20260503230319 | 58 | 229 | 3.0 | 8.0 | 0.00 | 0.00 | 0.00 | 36 | 1000.1 |
| 20260503225554 | 58 | 257 | 4.0 | 14.0 | 0.00 | 0.00 | 0.00 | 35 | 1000.0 |
| 20260503225054 | 58 | 262 | 4.0 | 14.0 | 0.00 | 0.00 | 0.00 | 35 | 1000.0 |
| 20260503224552 | 59 | 292 | 3.0 | 10.0 | 0.00 | 0.00 | 0.00 | 36 | 1000.0 |
| 20260503224054 | 59 | 288 | 2.0 | 9.0 | 0.00 | 0.00 | 0.00 | 36 | 1000.0 |
| 20260503223550 | 59 | 232 | 3.0 | 10.0 | 0.00 | 0.00 | 0.00 | 36 | 1000.0 |
| 20260503223051 | 59 | 292 | 4.0 | 15.0 | 0.00 | 0.00 | 0.00 | 34 | 1000.0 |
| 20260503222548 | 59 | 198 | 3.0 | 15.0 | 0.00 | 0.00 | 0.00 | 34 | 1000.0 |
| 20260503222049 | 60 | 221 | 4.0 | 14.0 | 0.00 | 0.00 | 0.00 | 33 | 1000.0 |
| 20260503221549 | 60 | 300 | 4.0 | 12.0 | 0.00 | 0.00 | 0.00 | 33 | 999.9 |
| 20260503221049 | 60 | 227 | 5.0 | 13.0 | 0.00 | 0.00 | 0.00 | 33 | 999.9 |
| 20260503220549 | 60 | 223 | 3.0 | 13.0 | 0.00 | 0.00 | 0.00 | 34 | 1000.0 |
| 20260503220143 | 61 | 263 | 2.0 | 9.0 | 0.00 | 0.00 | 0.00 | 33 | 999.9 |
| 20260503215044 | 61 | 249 | 4.0 | 14.0 | 0.00 | 0.00 | 0.00 | 34 | 1000.0 |
| 20260503214803 | 61 | 253 | 5.0 | 14.0 | 0.00 | 0.00 | 0.00 | 31 | 999.8 |
| 20260503214307 | 61 | 134 | 3.0 | 10.0 | 0.00 | 0.00 | 0.00 | 31 | 999.8 |
| 20260503213545 | 62 | 237 | 3.0 | 11.0 | 0.00 | 0.00 | 0.00 | 32 | 999.9 |
| 20260503213044 | 61 | 295 | 4.0 | 11.0 | 0.00 | 0.00 | 0.00 | 32 | 999.8 |
| 20260503212810 | 61 | 216 | 3.0 | 12.0 | 0.00 | 0.00 | 0.00 | 34 | 999.8 |
| 20260503212045 | 61 | 225 | 3.0 | 13.0 | 0.00 | 0.00 | 0.00 | 32 | 999.7 |
| 20260503211816 | 62 | 0 | 3.0 | 13.0 | 0.00 | 0.00 | 0.00 | 31 | 999.9 |
| 20260503211047 | 62 | 299 | 4.0 | 18.0 | 0.00 | 0.00 | 0.00 | 34 | 999.9 |
| 20260503210542 | 61 | 25 | 5.0 | 18.0 | 0.00 | 0.00 | 0.00 | 31 | 999.8 |
| 20260503210041 | 61 | 257 | 4.0 | 11.0 | 0.00 | 0.00 | 0.00 | 31 | 999.8 |
| 20260503205809 | 61 | 248 | 4.0 | 14.0 | 0.00 | 0.00 | 0.00 | 34 | 999.9 |
| 20260503205043 | 61 | 148 | 4.0 | 14.0 | 0.00 | 0.00 | 0.00 | 34 | 999.9 |
| 20260503204541 | 62 | 329 | 4.0 | 13.0 | 0.00 | 0.00 | 0.00 | 34 | 1000.0 |
| 20260503204041 | 62 | 339 | 4.0 | 16.0 | 0.00 | 0.00 | 0.00 | 35 | 999.9 |
| 20260503203540 | 62 | 294 | 4.0 | 16.0 | 0.00 | 0.00 | 0.00 | 34 | 1000.1 |
| 20260503203042 | 62 | 236 | 2.0 | 10.0 | 0.00 | 0.00 | 0.00 | 32 | 1000.1 |
| 20260503202540 | 62 | 272 | 3.0 | 11.0 | 0.00 | 0.00 | 0.00 | 34 | 1000.1 |
| 20260503202301 | 62 | 302 | 3.0 | 11.0 | 0.00 | 0.00 | 0.00 | 34 | 1000.0 |
| 20260503201540 | 61 | 284 | 3.0 | 15.0 | 0.00 | 0.00 | 0.00 | 35 | 1000.1 |
| 20260503201040 | 61 | 331 | 3.0 | 15.0 | 0.00 | 0.00 | 0.00 | 35 | 1000.2 |
| 20260503200533 | 61 | 333 | 3.0 | 10.0 | 0.00 | 0.00 | 0.00 | 35 | 1000.3 |
| 20260503200027 | 60 | 252 | 5.0 | 12.0 | 0.00 | 0.00 | 0.00 | 34 | 1000.3 |
| 20260503195521 | 61 | 178 | 5.0 | 12.0 | 0.00 | 0.00 | 0.00 | 34 | 1000.3 |
| 20260503195018 | 61 | 234 | 4.0 | 11.0 | 0.00 | 0.00 | 0.00 | 34 | 1000.4 |
| 20260503194519 | 61 | 159 | 4.0 | 19.0 | 0.00 | 0.00 | 0.00 | 38 | 1000.5 |
| 20260503194019 | 61 | 248 | 5.0 | 19.0 | 0.00 | 0.00 | 0.00 | 36 | 1000.6 |
| 20260503193737 | 60 | 227 | 3.0 | 12.0 | 0.00 | 0.00 | 0.00 | 35 | 1000.5 |
| 20260503193019 | 61 | 214 | 4.0 | 13.0 | 0.00 | 0.00 | 0.00 | 38 | 1000.6 |
| 20260503192518 | 60 | 130 | 5.0 | 15.0 | 0.00 | 0.00 | 0.00 | 39 | 1000.6 |
| 20260503192020 | 60 | 5 | 4.0 | 15.0 | 0.00 | 0.00 | 0.00 | 35 | 1000.8 |